Tacoma, WA
on Thursday, November 8, 2012

Thursday
Previous Day Next Day
Daily Summary
 ActualAverage (KSEA)Record (KSEA)
Temperature
Mean Temperature °F 47°F  
Max Temperature 49°F 53°F 64°F (1952)
Min Temperature 26°F 42°F 27°F (1948)
Degree Days
Heating Degree Days 28 18  
Month to date heating degree days 137  
Since 1 July heating degree days 734  
Cooling Degree Days 0 0  
Month to date cooling degree days 0  
Year to date cooling degree days 189  
Moisture
Dew Point 32°F   
Average Humidity 94    
Maximum Humidity 100    
Minimum Humidity 63    
Precipitation
Precipitation 0.00 in 0.22 in 0.85 in (2000)
Month to date precipitation 1.61  
Year to date precipitation 27.18  
Snow
Snow 0.00 in in T in (1992)
Month to date snowfall  
Since 1 July snowfall  
Snow Depth in   
Wind
Wind Speed 2 mph   
Max Wind Speed 16 mph   
Max Gust Speed 18 mph   
Visibility 5 miles   
Events Fog   

Key: T is trace of precipitation, MM is missing value
Source: NWS Daily Summary
Time(PST)TemperatureDew PointHumidity Pressure Visibility Wind DirectionWind SpeedGust SpeedPrecipitationEvents Conditions
12:58 AM 32.4°F 32.0°F 99% 29.95 in 10.0 miles South 2.3 mph - N/A   Overcast
1:23 AM 32.0°F 32.0°F 100% 29.92 in 2.0 miles East 2.3 mph - N/A   Overcast
1:28 AM 32.0°F 32.0°F 100% 29.92 in 2.5 miles ENE 1.2 mph - N/A   Overcast
1:33 AM 32.0°F 32.0°F 100% 29.92 in 3.0 miles Calm Calm - N/A   Overcast
1:58 AM 33.8°F 33.6°F 99% 29.93 in 3.0 miles Calm Calm - N/A   Partly Cloudy
2:03 AM 32.0°F 32.0°F 100% 29.91 in 2.5 miles WNW 2.3 mph - N/A   Clear
2:08 AM 32.0°F 32.0°F 100% 29.91 in 4.0 miles Calm Calm - N/A   Clear
2:28 AM 32.0°F 32.0°F 100% 29.90 in 2.5 miles Calm Calm - N/A   Clear
2:33 AM 32.0°F 32.0°F 100% 29.90 in 1.0 miles Calm Calm - N/A   Clear
2:38 AM 32.0°F 32.0°F 100% 29.89 in 0.8 miles Calm Calm - N/A   Clear
2:43 AM 32.0°F 32.0°F 100% 29.89 in 1.5 miles Calm Calm - N/A   Clear
2:48 AM 32.0°F 30.2°F 93% 29.89 in 2.0 miles SE 3.5 mph - N/A   Clear
2:53 AM 30.2°F 28.4°F 93% 29.89 in 1.5 miles SE 2.3 mph - N/A   Clear
2:58 AM 29.5°F 28.9°F 98% 29.91 in 1.5 miles SE 2.3 mph - N/A   Clear
3:03 AM 32.0°F 30.2°F 93% 29.89 in 1.8 miles East 2.3 mph - N/A   Clear
3:08 AM 32.0°F 32.0°F 100% 29.89 in 4.0 miles East 3.5 mph - N/A   Clear
3:58 AM 31.1°F 30.9°F 99% 29.90 in 4.0 miles ENE 2.3 mph - N/A   Clear
4:33 AM 30.2°F 30.2°F 100% 29.87 in 1.2 miles SE 1.2 mph - N/A   Clear
4:38 AM 30.2°F 30.2°F 100% 29.87 in 0.8 miles SE 1.2 mph - N/A   Clear
4:43 AM 30.2°F 30.2°F 100% 29.87 in 0.5 miles Calm Calm - N/A Fog Light Freezing Fog
4:48 AM 30.2°F 30.2°F 100% 29.86 in 0.8 miles ENE 2.3 mph - N/A   Clear
4:53 AM 32.0°F 32.0°F 100% 29.86 in 1.8 miles ENE 2.3 mph - N/A   Clear
4:58 AM 30.7°F 30.6°F 99% 29.88 in 9.0 miles East 1.2 mph - N/A   Clear
5:33 AM 28.4°F 28.4°F 100% 29.86 in 1.8 miles South 2.3 mph - N/A   Clear
5:43 AM 28.4°F 28.4°F 100% 29.86 in 3.0 miles SSE 2.3 mph - N/A   Clear
5:48 AM 28.4°F 28.4°F 100% 29.85 in 2.5 miles SSE 2.3 mph - N/A   Clear
5:53 AM 28.4°F 28.4°F 100% 29.85 in 1.8 miles SE 2.3 mph - N/A   Clear
5:58 AM 28.4°F 28.4°F 100% 29.87 in 0.8 miles SSE 2.3 mph - N/A   Clear
6:13 AM 28.4°F 28.4°F 100% 29.85 in 0.5 miles SSE 2.3 mph - N/A Fog Light Freezing Fog
6:18 AM 28.4°F 28.4°F 100% 29.85 in 0.8 miles Calm Calm - N/A   Clear
6:28 AM 28.4°F 28.4°F 100% 29.85 in 0.5 miles Calm Calm - N/A Fog Light Freezing Fog
6:38 AM 30.2°F 28.4°F 93% 29.84 in 0.8 miles Calm Calm - N/A   Clear
6:48 AM 28.4°F 28.4°F 100% 29.84 in 0.5 miles Calm Calm - N/A Fog Light Freezing Fog
6:53 AM 28.4°F 28.4°F 100% 29.84 in 0.2 miles Calm Calm - N/A Fog Light Freezing Fog
6:58 AM 28.8°F 28.6°F 99% 29.86 in 0.5 miles SE 1.2 mph - N/A Fog Light Freezing Fog
7:03 AM 28.4°F 28.4°F 100% 29.84 in 1.0 miles SSE 3.5 mph - N/A   Clear
7:13 AM 28.4°F 28.4°F 100% 29.84 in 2.5 miles South 5.8 mph - N/A   Clear
7:18 AM 26.6°F 26.6°F 100% 29.84 in 2.0 miles South 3.5 mph - N/A   Partly Cloudy
7:23 AM 26.6°F 26.6°F 100% 29.84 in 1.8 miles South 3.5 mph - N/A   Scattered Clouds
7:28 AM 28.4°F 26.6°F 93% 29.84 in 5.0 miles South 3.5 mph - N/A   Mostly Cloudy
7:38 AM 28.4°F 26.6°F 93% 29.85 in 10.0 miles SSE 4.6 mph - N/A   Scattered Clouds
7:43 AM 28.4°F 26.6°F 93% 29.85 in 10.0 miles South 4.6 mph - N/A   Mostly Cloudy
7:58 AM 28.8°F 28.4°F 99% 29.87 in 10.0 miles Calm Calm - N/A   Mostly Cloudy
8:03 AM 32.0°F 30.2°F 93% 29.85 in 10.0 miles Calm Calm - N/A   Overcast
8:12 AM 32.0°F 32.0°F 100% 29.85 in 10.0 miles Calm Calm - N/A   Overcast
8:37 AM 32.0°F 32.0°F 100% 29.85 in 10.0 miles East 1.2 mph - N/A   Overcast
8:58 AM 33.6°F 33.4°F 99% 29.86 in 10.0 miles Calm Calm - N/A   Overcast
9:08 AM 33.8°F 33.8°F 100% 29.84 in 10.0 miles Calm Calm - N/A   Overcast
9:18 AM 35.6°F 33.8°F 93% 29.84 in 10.0 miles SSE 1.2 mph - N/A   Overcast
9:28 AM 35.6°F 35.6°F 100% 29.84 in 10.0 miles SSE 3.5 mph - N/A   Overcast
9:58 AM 40.6°F 39.7°F 97% 29.85 in 10.0 miles Variable 3.5 mph - N/A   Partly Cloudy
10:58 AM 46.6°F 38.7°F 74% 29.85 in 10.0 miles North 11.5 mph - N/A   Clear
11:55 AM 48.2°F 39.2°F 71% 29.82 in 10.0 miles North 16.1 mph - N/A   Partly Cloudy
12:58 PM 49.1°F 36.9°F 63% 29.84 in 10.0 miles NNE 11.5 mph - N/A   Partly Cloudy
1:58 PM 49.6°F 37.9°F 64% 29.82 in 10.0 miles North 13.8 mph - N/A   Partly Cloudy
2:58 PM 48.9°F 37.9°F 66% 29.83 in 10.0 miles NNE 11.5 mph 18.4 mph N/A   Clear
3:58 PM 47.7°F 38.3°F 70% 29.83 in 10.0 miles NNE 12.7 mph - N/A   Clear
4:58 PM 46.0°F 37.2°F 71% 29.83 in 10.0 miles NNE 8.1 mph - N/A   Mostly Cloudy
5:58 PM 44.8°F 36.7°F 73% 29.84 in 10.0 miles NE 5.8 mph - N/A   Clear
6:58 PM 42.6°F 35.4°F 76% 29.84 in 10.0 miles ESE 1.2 mph - N/A   Clear
7:58 PM 36.7°F 33.8°F 89% 29.85 in 10.0 miles East 2.3 mph - N/A   Clear
8:58 PM 35.6°F 33.1°F 91% 29.86 in 10.0 miles Calm Calm - N/A   Clear
9:58 PM 34.5°F 34.2°F 99% 29.86 in 10.0 miles South 3.5 mph - N/A   Scattered Clouds
10:58 PM 32.9°F 32.4°F 98% 29.86 in 10.0 miles Calm Calm - N/A   Overcast
11:58 PM 33.4°F 32.7°F 97% 29.85 in 10.0 miles Calm Calm - N/A   Scattered Clouds
Moon Phase
Nov. 08 Nov. 13 Nov. 20 Nov. 28 Dec. 06
Sunrise:07:04 AM (PST) Moon Rise:12:42 AM (PST)11/8
Sunset:04:42 PM (PST) Moon Set:01:46 PM (PST)11/8

Copyright © 2014 The Weather Underground, Inc.